sat.trackr.live / text

‹ back to catalog

CZ-12 R/B

NORAD 69581 · 2026-137K

ROCKET_BODY UNKNOWN UNKNOWN

§ Identity

Operator
Country
PRC
Launch date
2026-06-17
Launch site
WSC
Launch vehicle
Mass (kg)
RCS (m²)

External: N2YO · Heavens-Above · Gunter

§ Orbital elements

Epoch: 2026-07-13T06:43:04.828800Z

Period
102.01 min
Inclination
49.9888°
Eccentricity
0.0077441
Mean motion
14.11694334 rev/d
Perigee alt
797.6 km
Apogee alt
909.6 km
Semi-major
7,231.7 km
B*
2.2245e-5
RAAN
147.7098°
Arg perigee
203.1402°
Mean anomaly
156.6010°
Rev number
369

§ Raw data

CZ-12 R/B1 69581U 26137K   26194.27991700 -.00000112  00000+0  22245-4 0  99982 69581  49.9888 147.7098 0077441 203.1402 156.6010 14.11694334  3691

JSON: /api/v1/satellites/69581 · /tle

For live sub-satellite position, see the globe view (requires WebGL).

§ Visibility from observer

Set your observer location to see the next 7 days of passes ≥ 10°. The values pass through the URL so the page stays shareable.

No JS? Fill the form by hand. The geolocation button needs JavaScript.